Time,TemperatureF,DewpointF,PressureIn,WindDirection,WindDirectionDegrees,WindSpeedMPH,WindSpeedGustMPH,Humidity,HourlyPrecipIn,Conditions,Clouds,dailyrainin,SoftwareType,DateUTC
2013-02-08 00:02:00,35.0,-99.9,30.19,ENE,60,16.0,20.0,-999,-99.99,,,-99.99,,2013-02-08 05:02:00,
2013-02-08 00:12:00,35.0,-99.9,30.19,ENE,60,16.0,20.0,-999,-99.99,,,-99.99,,2013-02-08 05:12:00,
2013-02-08 00:22:00,35.0,-99.9,30.19,NE,50,16.0,18.0,-999,-99.99,,,-99.99,,2013-02-08 05:22:00,
2013-02-08 00:32:00,35.0,-99.9,30.19,ENE,60,13.0,18.0,-999,-99.99,,,-99.99,,2013-02-08 05:32:00,
2013-02-08 00:42:00,35.0,-99.9,30.18,ENE,60,13.0,18.0,-999,-99.99,,,-99.99,,2013-02-08 05:42:00,
2013-02-08 00:52:00,35.0,-99.9,30.17,ENE,60,13.0,16.0,-999,-99.99,,,-99.99,,2013-02-08 05:52:00,
2013-02-08 01:02:00,35.0,-99.9,30.16,ENE,60,13.0,16.0,-999,-99.99,,,-99.99,,2013-02-08 06:02:00,
2013-02-08 01:11:00,35.0,-99.9,30.15,ENE,60,13.0,16.0,-999,-99.99,,,-99.99,,2013-02-08 06:11:00,
2013-02-08 01:22:00,35.0,-99.9,30.14,ENE,60,13.0,16.0,-999,-99.99,,,-99.99,,2013-02-08 06:22:00,
2013-02-08 01:32:00,35.0,-99.9,30.14,NE,50,13.0,16.0,-999,-99.99,,,-99.99,,2013-02-08 06:32:00,
2013-02-08 01:42:00,35.0,-99.9,30.14,NE,50,11.0,16.0,-999,-99.99,,,-99.99,,2013-02-08 06:42:00,
2013-02-08 01:52:00,36.0,-99.9,30.14,NE,50,11.0,13.0,-999,-99.99,,,-99.99,,2013-02-08 06:52:00,
2013-02-08 02:02:00,36.0,-99.9,30.14,NE,50,11.0,11.0,-999,-99.99,,,-99.99,,2013-02-08 07:02:00,
2013-02-08 02:12:00,36.0,-99.9,30.14,NE,50,11.0,11.0,-999,-99.99,,,-99.99,,2013-02-08 07:12:00,
2013-02-08 02:22:00,36.0,-99.9,30.12,NE,50,9.0,13.0,-999,-99.99,,,-99.99,,2013-02-08 07:22:00,
2013-02-08 02:32:00,36.0,-99.9,30.12,NE,50,9.0,13.0,-999,-99.99,,,-99.99,,2013-02-08 07:32:00,
2013-02-08 02:42:00,35.0,-99.9,30.11,NE,40,9.0,11.0,-999,-99.99,,,-99.99,,2013-02-08 07:42:00,
2013-02-08 02:52:00,35.0,-99.9,30.10,NE,40,9.0,11.0,-999,-99.99,,,-99.99,,2013-02-08 07:52:00,
2013-02-08 03:01:00,35.0,-99.9,30.09,NNE,30,9.0,11.0,-999,-99.99,,,-99.99,,2013-02-08 08:01:00,
2013-02-08 03:12:00,35.0,-99.9,30.09,NNE,30,9.0,11.0,-999,-99.99,,,-99.99,,2013-02-08 08:12:00,
2013-02-08 03:22:00,35.0,-99.9,30.08,NNE,30,9.0,11.0,-999,-99.99,,,-99.99,,2013-02-08 08:22:00,
2013-02-08 03:32:00,35.0,-99.9,30.08,NNE,20,9.0,11.0,-999,-99.99,,,-99.99,,2013-02-08 08:32:00,
2013-02-08 03:42:00,35.0,-99.9,30.07,NNE,20,9.0,11.0,-999,-99.99,,,-99.99,,2013-02-08 08:42:00,
2013-02-08 03:52:00,34.0,-99.9,30.06,NNE,20,9.0,11.0,-999,-99.99,,,-99.99,,2013-02-08 08:52:00,
2013-02-08 04:03:00,34.0,-99.9,30.06,NNE,20,9.0,9.0,-999,-99.99,,,-99.99,,2013-02-08 09:03:00,
2013-02-08 04:11:00,34.0,-99.9,30.05,NNE,20,9.0,11.0,-999,-99.99,,,-99.99,,2013-02-08 09:11:00,
2013-02-08 04:22:00,35.0,-99.9,30.06,WSW,250,4.0,7.0,-999,-99.99,,,-99.99,,2013-02-08 09:22:00,
2013-02-08 04:32:00,34.0,-99.9,30.05,East,100,4.0,7.0,-999,-99.99,,,-99.99,,2013-02-08 09:32:00,
2013-02-08 04:42:00,35.0,-99.9,30.04,NE,50,4.0,7.0,-999,-99.99,,,-99.99,,2013-02-08 09:42:00,
2013-02-08 04:52:00,35.0,-99.9,30.04,NE,40,4.0,7.0,-999,-99.99,,,-99.99,,2013-02-08 09:52:00,
2013-02-08 05:01:00,35.0,-99.9,30.04,NE,40,4.0,9.0,-999,-99.99,,,-99.99,,2013-02-08 10:01:00,
2013-02-08 05:12:00,35.0,-99.9,30.03,NNE,20,4.0,7.0,-999,-99.99,,,-99.99,,2013-02-08 10:12:00,
2013-02-08 05:22:00,35.0,-99.9,30.02,North,360,7.0,9.0,-999,-99.99,,,-99.99,,2013-02-08 10:22:00,
2013-02-08 05:32:00,35.0,-99.9,30.01,North,350,7.0,9.0,-999,-99.99,,,-99.99,,2013-02-08 10:32:00,
2013-02-08 05:42:00,35.0,-99.9,30.01,North,360,9.0,11.0,-999,-99.99,,,-99.99,,2013-02-08 10:42:00,
2013-02-08 05:52:00,35.0,-99.9,30.00,North,10,9.0,11.0,-999,-99.99,,,-99.99,,2013-02-08 10:52:00,
2013-02-08 06:02:00,35.0,-99.9,29.99,North,10,9.0,11.0,-999,-99.99,,,-99.99,,2013-02-08 11:02:00,
2013-02-08 06:11:00,35.0,-99.9,29.99,North,10,9.0,11.0,-999,-99.99,,,-99.99,,2013-02-08 11:11:00,
2013-02-08 06:22:00,35.0,-99.9,29.98,North,10,9.0,13.0,-999,-99.99,,,-99.99,,2013-02-08 11:22:00,
2013-02-08 06:32:00,35.0,-99.9,29.98,North,10,9.0,11.0,-999,-99.99,,,-99.99,,2013-02-08 11:32:00,
2013-02-08 06:42:00,35.0,-99.9,29.98,North,10,9.0,11.0,-999,-99.99,,,-99.99,,2013-02-08 11:42:00,
2013-02-08 06:53:00,35.0,-99.9,29.97,NNE,20,11.0,13.0,-999,-99.99,,,-99.99,,2013-02-08 11:53:00,
2013-02-08 07:02:00,35.0,-99.9,29.96,NNE,20,11.0,13.0,-999,-99.99,,,-99.99,,2013-02-08 12:02:00,
2013-02-08 07:11:00,35.0,-99.9,29.96,North,10,11.0,13.0,-999,-99.99,,,-99.99,,2013-02-08 12:11:00,
2013-02-08 07:22:00,35.0,-99.9,29.95,North,10,13.0,16.0,-999,-99.99,,,-99.99,,2013-02-08 12:22:00,
2013-02-08 07:33:00,36.0,-99.9,29.95,North,10,13.0,16.0,-999,-99.99,,,-99.99,,2013-02-08 12:33:00,
2013-02-08 07:42:00,36.0,-99.9,29.94,NNE,20,13.0,16.0,-999,-99.99,,,-99.99,,2013-02-08 12:42:00,
2013-02-08 07:53:00,36.0,-99.9,29.94,NNE,20,11.0,16.0,-999,-99.99,,,-99.99,,2013-02-08 12:53:00,
2013-02-08 08:02:00,36.0,-99.9,29.94,NNE,20,11.0,13.0,-999,-99.99,,,-99.99,,2013-02-08 13:02:00,
2013-02-08 08:12:00,36.0,-99.9,29.94,NNE,20,11.0,13.0,-999,-99.99,,,-99.99,,2013-02-08 13:12:00,
2013-02-08 08:22:00,36.0,-99.9,29.93,NNE,30,11.0,16.0,-999,-99.99,,,-99.99,,2013-02-08 13:22:00,
2013-02-08 08:33:00,36.0,-99.9,29.92,NNE,30,13.0,16.0,-999,-99.99,,,-99.99,,2013-02-08 13:33:00,
2013-02-08 08:43:00,36.0,-99.9,29.91,NNE,20,13.0,18.0,-999,-99.99,,,-99.99,,2013-02-08 13:43:00,
2013-02-08 08:52:00,36.0,-99.9,29.90,NNE,20,13.0,18.0,-999,-99.99,,,-99.99,,2013-02-08 13:52:00,
2013-02-08 09:02:00,37.0,-99.9,29.89,NNE,20,13.0,16.0,-999,-99.99,,,-99.99,,2013-02-08 14:02:00,
2013-02-08 09:12:00,37.0,-99.9,29.89,NNE,20,13.0,16.0,-999,-99.99,,,-99.99,,2013-02-08 14:12:00,
2013-02-08 09:22:00,37.0,-99.9,29.88,NNE,20,13.0,18.0,-999,-99.99,,,-99.99,,2013-02-08 14:22:00,
2013-02-08 09:33:00,37.0,-99.9,29.87,NNE,20,16.0,18.0,-999,-99.99,,,-99.99,,2013-02-08 14:33:00,
2013-02-08 09:42:00,37.0,-99.9,29.86,NNE,20,16.0,20.0,-999,-99.99,,,-99.99,,2013-02-08 14:42:00,
2013-02-08 09:52:00,38.0,-99.9,29.85,NNE,20,16.0,20.0,-999,-99.99,,,-99.99,,2013-02-08 14:52:00,
2013-02-08 10:02:00,38.0,-99.9,29.84,NNE,20,16.0,20.0,-999,-99.99,,,-99.99,,2013-02-08 15:02:00,
2013-02-08 10:12:00,38.0,-99.9,29.83,NNE,20,16.0,20.0,-999,-99.99,,,-99.99,,2013-02-08 15:12:00,
2013-02-08 10:22:00,38.0,-99.9,29.82,NNE,20,18.0,22.0,-999,-99.99,,,-99.99,,2013-02-08 15:22:00,
2013-02-08 10:32:00,38.0,-99.9,29.82,NNE,20,18.0,22.0,-999,-99.99,,,-99.99,,2013-02-08 15:32:00,
2013-02-08 10:42:00,39.0,-99.9,29.81,NNE,20,20.0,25.0,-999,-99.99,,,-99.99,,2013-02-08 15:42:00,
2013-02-08 10:52:00,39.0,-99.9,29.81,NNE,20,18.0,25.0,-999,-99.99,,,-99.99,,2013-02-08 15:52:00,
2013-02-08 11:02:00,39.0,-99.9,29.81,NNE,20,18.0,22.0,-999,-99.99,,,-99.99,,2013-02-08 16:02:00,
2013-02-08 11:12:00,39.0,-99.9,29.81,North,10,16.0,20.0,-999,-99.99,,,-99.99,,2013-02-08 16:12:00,
2013-02-08 11:22:00,40.0,-99.9,29.80,North,360,16.0,22.0,-999,-99.99,,,-99.99,,2013-02-08 16:22:00,
2013-02-08 11:33:00,40.0,-99.9,29.80,North,10,16.0,20.0,-999,-99.99,,,-99.99,,2013-02-08 16:33:00,
2013-02-08 11:42:00,40.0,-99.9,29.79,North,10,16.0,22.0,-999,-99.99,,,-99.99,,2013-02-08 16:42:00,
2013-02-08 11:52:00,40.0,-99.9,29.78,North,10,16.0,22.0,-999,-99.99,,,-99.99,,2013-02-08 16:52:00,
2013-02-08 12:04:00,39.0,-99.9,29.78,North,10,16.0,20.0,-999,-99.99,,,-99.99,,2013-02-08 17:04:00,
2013-02-08 12:13:00,39.0,-99.9,29.78,North,10,16.0,20.0,-999,-99.99,,,-99.99,,2013-02-08 17:13:00,
2013-02-08 12:23:00,40.0,-99.9,29.77,NNE,20,16.0,20.0,-999,-99.99,,,-99.99,,2013-02-08 17:23:00,
2013-02-08 12:33:00,40.0,-99.9,29.76,NNE,20,18.0,22.0,-999,-99.99,,,-99.99,,2013-02-08 17:33:00,
2013-02-08 12:42:00,40.0,-99.9,29.75,NNE,20,18.0,22.0,-999,-99.99,,,-99.99,,2013-02-08 17:42:00,
2013-02-08 12:53:00,40.0,-99.9,29.75,NNE,20,18.0,22.0,-999,-99.99,,,-99.99,,2013-02-08 17:53:00,
2013-02-08 13:03:00,40.0,-99.9,29.74,NNE,20,18.0,22.0,-999,-99.99,,,-99.99,,2013-02-08 18:03:00,
2013-02-08 13:12:00,40.0,-99.9,29.73,NNE,20,18.0,22.0,-999,-99.99,,,-99.99,,2013-02-08 18:12:00,
2013-02-08 13:25:00,40.0,-99.9,29.73,North,10,16.0,22.0,-999,-99.99,,,-99.99,,2013-02-08 18:25:00,
2013-02-08 13:36:00,40.0,-99.9,29.72,North,10,16.0,22.0,-999,-99.99,,,-99.99,,2013-02-08 18:36:00,
2013-02-08 13:44:00,40.0,-99.9,29.72,North,10,16.0,20.0,-999,-99.99,,,-99.99,,2013-02-08 18:44:00,
2013-02-08 13:53:00,40.0,-99.9,29.72,North,360,16.0,20.0,-999,-99.99,,,-99.99,,2013-02-08 18:53:00,
2013-02-08 14:02:00,40.0,-99.9,29.72,North,350,16.0,20.0,-999,-99.99,,,-99.99,,2013-02-08 19:02:00,
2013-02-08 14:12:00,40.0,-99.9,29.72,North,350,16.0,20.0,-999,-99.99,,,-99.99,,2013-02-08 19:12:00,
2013-02-08 14:22:00,40.0,-99.9,29.72,North,350,13.0,18.0,-999,-99.99,,,-99.99,,2013-02-08 19:22:00,
2013-02-08 14:33:00,40.0,-99.9,29.72,NNW,340,13.0,18.0,-999,-99.99,,,-99.99,,2013-02-08 19:33:00,
2013-02-08 14:42:00,40.0,-99.9,29.70,North,350,13.0,20.0,-999,-99.99,,,-99.99,,2013-02-08 19:42:00,
2013-02-08 14:52:00,40.0,-99.9,29.69,North,10,16.0,22.0,-999,-99.99,,,-99.99,,2013-02-08 19:52:00,
2013-02-08 15:02:00,40.0,-99.9,29.67,North,10,16.0,22.0,-999,-99.99,,,-99.99,,2013-02-08 20:02:00,
2013-02-08 15:12:00,41.0,-99.9,29.69,North,350,16.0,22.0,-999,-99.99,,,-99.99,,2013-02-08 20:12:00,
2013-02-08 15:22:00,41.0,-99.9,29.69,North,350,16.0,20.0,-999,-99.99,,,-99.99,,2013-02-08 20:22:00,
2013-02-08 15:32:00,41.0,-99.9,29.69,North,350,16.0,20.0,-999,-99.99,,,-99.99,,2013-02-08 20:32:00,
2013-02-08 15:42:00,41.0,-99.9,29.70,North,360,13.0,16.0,-999,-99.99,,,-99.99,,2013-02-08 20:42:00,
2013-02-08 15:53:00,41.0,-99.9,29.70,North,350,13.0,20.0,-999,-99.99,,,-99.99,,2013-02-08 20:53:00,
2013-02-08 16:02:00,41.0,-99.9,29.71,North,350,16.0,20.0,-999,-99.99,,,-99.99,,2013-02-08 21:02:00,
2013-02-08 16:12:00,41.0,-99.9,29.71,North,350,11.0,16.0,-999,-99.99,,,-99.99,,2013-02-08 21:12:00,
2013-02-08 16:22:00,41.0,-99.9,29.70,North,360,13.0,16.0,-999,-99.99,,,-99.99,,2013-02-08 21:22:00,
2013-02-08 16:33:00,40.0,-99.9,29.71,North,350,11.0,18.0,-999,-99.99,,,-99.99,,2013-02-08 21:33:00,
2013-02-08 16:42:00,40.0,-99.9,29.71,NNW,330,11.0,13.0,-999,-99.99,,,-99.99,,2013-02-08 21:42:00,
2013-02-08 16:52:00,40.0,-99.9,29.72,NW,320,11.0,13.0,-999,-99.99,,,-99.99,,2013-02-08 21:52:00,
2013-02-08 17:02:00,40.0,-99.9,29.72,NW,320,11.0,18.0,-999,-99.99,,,-99.99,,2013-02-08 22:02:00,
2013-02-08 17:12:00,40.0,-99.9,29.72,NW,320,11.0,18.0,-999,-99.99,,,-99.99,,2013-02-08 22:12:00,
2013-02-08 17:22:00,40.0,-99.9,29.72,NNW,330,9.0,13.0,-999,-99.99,,,-99.99,,2013-02-08 22:22:00,
2013-02-08 17:32:00,40.0,-99.9,29.72,NW,320,11.0,13.0,-999,-99.99,,,-99.99,,2013-02-08 22:32:00,
2013-02-08 17:42:00,40.0,-99.9,29.72,NNW,330,13.0,16.0,-999,-99.99,,,-99.99,,2013-02-08 22:42:00,
2013-02-08 17:52:00,40.0,-99.9,29.72,NNW,330,13.0,18.0,-999,-99.99,,,-99.99,,2013-02-08 22:52:00,
2013-02-08 18:02:00,40.0,-99.9,29.73,NW,320,13.0,20.0,-999,-99.99,,,-99.99,,2013-02-08 23:02:00,
2013-02-08 18:12:00,39.0,-99.9,29.73,NW,320,16.0,18.0,-999,-99.99,,,-99.99,,2013-02-08 23:12:00,
2013-02-08 18:22:00,39.0,-99.9,29.73,NW,320,13.0,16.0,-999,-99.99,,,-99.99,,2013-02-08 23:22:00,
2013-02-08 18:32:00,39.0,-99.9,29.74,NW,320,13.0,16.0,-999,-99.99,,,-99.99,,2013-02-08 23:32:00,
2013-02-08 18:42:00,39.0,-99.9,29.74,NW,320,13.0,16.0,-999,-99.99,,,-99.99,,2013-02-08 23:42:00,
2013-02-08 18:52:00,39.0,-99.9,29.75,NW,310,13.0,16.0,-999,-99.99,,,-99.99,,2013-02-08 23:52:00,
2013-02-08 19:02:00,39.0,-99.9,29.75,NW,310,13.0,18.0,-999,-99.99,,,-99.99,,2013-02-09 00:02:00,
2013-02-08 19:12:00,39.0,-99.9,29.75,NW,310,13.0,18.0,-999,-99.99,,,-99.99,,2013-02-09 00:12:00,
2013-02-08 19:22:00,39.0,-99.9,29.75,NW,310,11.0,16.0,-999,-99.99,,,-99.99,,2013-02-09 00:22:00,
2013-02-08 19:32:00,39.0,-99.9,29.75,NW,310,13.0,16.0,-999,-99.99,,,-99.99,,2013-02-09 00:32:00,
2013-02-08 19:42:00,39.0,-99.9,29.75,NW,310,13.0,16.0,-999,-99.99,,,-99.99,,2013-02-09 00:42:00,
2013-02-08 19:52:00,39.0,-99.9,29.75,NW,310,11.0,18.0,-999,-99.99,,,-99.99,,2013-02-09 00:52:00,
2013-02-08 20:02:00,40.0,-99.9,29.76,NW,310,16.0,18.0,-999,-99.99,,,-99.99,,2013-02-09 01:02:00,
2013-02-08 20:12:00,40.0,-99.9,29.76,NW,310,18.0,22.0,-999,-99.99,,,-99.99,,2013-02-09 01:12:00,
2013-02-08 20:22:00,40.0,-99.9,29.76,WNW,300,16.0,20.0,-999,-99.99,,,-99.99,,2013-02-09 01:22:00,
2013-02-08 20:32:00,40.0,-99.9,29.76,WNW,300,16.0,20.0,-999,-99.99,,,-99.99,,2013-02-09 01:32:00,
2013-02-08 20:42:00,41.0,-99.9,29.76,NW,310,18.0,22.0,-999,-99.99,,,-99.99,,2013-02-09 01:42:00,
2013-02-08 20:52:00,41.0,-99.9,29.77,NW,310,18.0,22.0,-999,-99.99,,,-99.99,,2013-02-09 01:52:00,
2013-02-08 21:02:00,41.0,-99.9,29.77,WNW,300,18.0,22.0,-999,-99.99,,,-99.99,,2013-02-09 02:02:00,
2013-02-08 21:11:00,41.0,-99.9,29.77,WNW,300,18.0,22.0,-999,-99.99,,,-99.99,,2013-02-09 02:11:00,
2013-02-08 21:22:00,41.0,-99.9,29.78,NW,310,25.0,31.0,-999,-99.99,,,-99.99,,2013-02-09 02:22:00,
2013-02-08 21:32:00,41.0,-99.9,29.78,NW,310,22.0,31.0,-999,-99.99,,,-99.99,,2013-02-09 02:32:00,
2013-02-08 21:42:00,41.0,-99.9,29.79,NW,310,22.0,31.0,-999,-99.99,,,-99.99,,2013-02-09 02:42:00,
2013-02-08 21:53:00,40.0,-99.9,29.80,NW,310,25.0,31.0,-999,-99.99,,,-99.99,,2013-02-09 02:53:00,
2013-02-08 22:02:00,40.0,-99.9,29.80,NW,310,22.0,31.0,-999,-99.99,,,-99.99,,2013-02-09 03:02:00,
2013-02-08 22:11:00,40.0,-99.9,29.80,NW,310,22.0,31.0,-999,-99.99,,,-99.99,,2013-02-09 03:11:00,
2013-02-08 22:22:00,40.0,-99.9,29.80,WNW,300,25.0,31.0,-999,-99.99,,,-99.99,,2013-02-09 03:22:00,
2013-02-08 22:32:00,39.0,-99.9,29.81,WNW,300,27.0,34.0,-999,-99.99,,,-99.99,,2013-02-09 03:32:00,
2013-02-08 22:42:00,39.0,-99.9,29.81,WNW,300,25.0,34.0,-999,-99.99,,,-99.99,,2013-02-09 03:42:00,
2013-02-08 22:53:00,39.0,-99.9,29.81,WNW,300,25.0,31.0,-999,-99.99,,,-99.99,,2013-02-09 03:53:00,
2013-02-08 23:03:00,39.0,-99.9,29.82,WNW,300,25.0,34.0,-999,-99.99,,,-99.99,,2013-02-09 04:03:00,
2013-02-08 23:12:00,38.0,-99.9,29.82,NW,320,22.0,31.0,-999,-99.99,,,-99.99,,2013-02-09 04:12:00,
2013-02-08 23:24:00,38.0,-99.9,29.83,NW,310,25.0,34.0,-999,-99.99,,,-99.99,,2013-02-09 04:24:00,
2013-02-08 23:32:00,38.0,-99.9,29.83,NW,310,22.0,36.0,-999,-99.99,,,-99.99,,2013-02-09 04:32:00,
2013-02-08 23:43:00,38.0,-99.9,29.83,NW,310,27.0,36.0,-999,-99.99,,,-99.99,,2013-02-09 04:43:00,
2013-02-08 23:53:00,37.0,-99.9,29.83,NW,310,22.0,29.0,-999,-99.99,,,-99.99,,2013-02-09 04:53:00,